Volver al catálogo

STARLINK-30109

ActivoComunicacionesVLEO
NORAD 56298·PAYLOAD·🇺🇸 United States

Lanzado Apr 19, 2023 desde Cape Canaveral Space Force Station

Loading…

Próximos Pases (próximas 24 horas)

TLE

ActualizadoSource: CelesTrak SupGP

Época: Sep 14, 2026, 22:14 UTC

1 56298C 23056N   26257.92687500  .00018354  00000+0  66430-3 0  2574
2 56298  42.9996 219.9937 0001016 258.8231  77.9394 15.27592886    11

Sigue STARLINK-30109 en tiempo real con AllMySat

Download on the App Store